Probability
12 15 16 16 15 15 18 18 17 17 17 16 14 10 6 4 3 2 0 0 0 1 0 0 0 1 3 4 3 4 4 3 3 2 1 0 0 0 0 0 0 0 0
14 18 20 18 18 20 21 20 19 18 17 17 16 12 6 3 2 2 0 0 0 1 1 0 1 4 7 7 5 5 4 3 3 2 1 0 0 0 0 0 0 0 1
14 19 22 21 24 26 25 22 21 19 18 18 17 13 6 2 1 1 1 0 0 1 2 2 3 7 10 9 7 6 5 4 4 3 2 2 1 0 0 0 0 1 1
12 16 21 24 27 27 25 23 22 20 19 17 16 12 7 3 1 1 1 0 0 1 3 4 5 6 7 8 7 6 6 6 5 5 5 4 2 0 0 1 1 1 1
12 16 20 24 26 24 21 22 21 20 18 16 13 10 6 3 1 0 1 2 2 2 3 6 6 5 5 6 7 8 7 6 6 7 8 7 5 3 2 2 3 3 2
15 18 22 24 25 22 21 22 23 21 18 14 9 6 5 3 2 1 2 5 6 5 5 7 9 9 8 9 10 10 7 7 10 11 11 10 7 6 6 5 4 3 3
19 20 23 25 24 23 22 23 23 21 18 14 8 5 6 6 4 2 3 7 9 8 7 8 10 12 14 14 15 13 8 10 13 14 14 12 9 9 9 7 5 4 4
22 20 19 20 22 21 20 21 21 18 15 12 9 7 7 7 4 2 4 7 8 8 8 8 9 12 15 18 20 17 13 13 15 14 14 13 10 9 10 9 7 5 5
20 18 13 13 16 17 16 18 19 16 12 9 7 6 6 6 5 3 3 6 6 6 6 6 8 11 14 18 21 21 18 17 18 17 16 13 10 9 11 11 11 10 8
15 15 13 13 13 14 14 15 17 17 13 10 8 7 7 6 5 4 4 5 5 5 4 5 7 10 12 14 18 19 19 19 21 20 17 14 11 12 14 15 15 15 14
15 17 19 19 15 15 16 16 17 16 15 12 10 8 6 4 3 3 3 5 6 6 6 6 7 9 9 10 12 14 15 16 17 17 16 14 14 15 17 17 18 18 17
23 25 27 24 21 22 22 20 18 16 14 11 10 8 6 4 3 3 5 6 7 7 8 9 8 7 7 7 9 9 11 12 12 11 12 14 15 16 17 17 18 17 14
33 33 31 28 27 28 27 22 18 16 13 10 9 9 9 9 8 7 8 9 9 8 8 9 8 7 6 7 7 7 8 9 9 9 10 13 14 13 13 14 16 14 11
37 36 34 31 29 29 26 22 18 15 13 11 11 11 13 13 12 11 12 11 9 8 7 8 7 6 7 7 8 7 7 8 9 10 10 12 12 9 7 9 12 12 10
35 35 34 31 28 25 22 20 17 14 13 14 14 13 13 12 12 12 12 11 9 8 8 8 7 7 7 7 7 7 6 7 9 11 11 11 8 4 2 4 7 8 8
31 33 32 30 26 22 19 17 15 14 14 15 15 13 11 11 11 11 10 10 9 9 9 9 9 7 6 4 4 4 4 6 8 9 10 9 6 2 1 1 2 3 4
28 29 28 27 25 21 18 16 15 14 13 13 12 9 8 8 9 9 8 8 9 10 10 10 10 8 4 2 1 1 2 3 5 6 7 6 4 2 2 1 1 2 2
27 27 26 24 22 20 18 17 16 13 11 10 8 6 5 5 6 7 7 7 7 8 9 9 8 6 3 1 0 0 0 1 3 4 5 4 3 2 2 2 2 2 3
31 30 27 24 22 20 19 18 17 15 11 8 6 5 4 3 4 5 5 6 6 6 7 7 6 4 3 1 0 0 1 2 3 5 5 5 3 2 1 3 3 2 2
34 32 28 24 23 22 20 19 17 14 10 5 3 3 3 3 3 4 5 6 5 5 5 6 5 4 3 1 0 0 1 3 4 5 5 4 3 1 1 2 2 1 1
28 26 24 23 23 21 19 17 14 10 6 3 1 1 1 2 3 4 6 6 5 4 4 4 4 3 3 2 1 0 1 2 3 4 4 3 2 0 0 1 1 0 0
20 20 20 21 21 20 17 14 10 6 4 2 0 0 0 1 2 3 5 5 4 3 3 3 3 3 3 2 1 0 1 1 2 2 2 2 1 0 0 0 0 0 0
17 17 16 16 17 17 14 10 6 5 4 2 1 0 0 0 0 1 2 3 2 2 2 3 3 3 3 3 1 0 0 0 1 1 1 1 0 0 0 0 0 0 0
13 13 13 12 12 11 8 6 4 4 4 3 2 1 0 0 0 0 0 1 1 1 2 2 3 3 3 3 2 0 0 0 0 0 0 0 0 0 0 0 0 0 0
10 10 9 9 9 9 6 4 3 3 3 3 2 1 0 0 0 0 0 0 0 1 1 1 1 2 2 2 1 0 0 0 0 0 0 0 0 0 0 0 0 0 0
9 8 7 6 8 9 7 4 2 3 3 3 2 1 0 0 0 0 0 0 0 0 0 0 0 1 1 1 0 0 0 0 0 0 0 0 0 0 0 0 0 0 0
Wind_Speed
11 11 11 11 10 10 10 10 10 9 7 6 6 6 5 5 5 6 7 7 7 7 7 6 6 6 6 5 6 5 6 5 4 3 3 4 5 5 4 5 5 6 6
11 11 11 11 11 11 11 10 10 10 9 7 5 4 4 4 5 5 6 7 8 8 8 8 7 7 5 6 6 6 5 5 5 4 4 4 4 6 6 5 6 6 6
11 12 12 11 11 11 11 10 10 10 10 9 6 5 4 4 5 6 6 7 8 9 8 9 8 6 7 6 7 7 8 6 5 5 4 4 3 2 4 6 6 5 5
11 11 11 11 11 10 10 9 10 10 9 9 8 8 7 7 6 5 5 7 8 9 9 10 9 8 7 7 8 8 6 7 6 5 5 5 3 3 3 5 6 7 7
10 10 10 10 9 9 9 9 9 9 9 9 8 8 8 6 5 5 5 6 6 8 9 9 8 8 7 7 8 6 7 6 7 5 5 5 5 7 6 4 4 5 6
9 9 9 8 8 8 8 8 9 9 9 9 9 9 9 8 6 6 6 6 5 6 8 8 8 8 7 8 8 7 9 7 7 6 5 5 5 6 6 6 5 4 4
9 9 9 9 8 8 7 7 7 8 8 9 9 9 9 8 8 7 6 5 5 5 7 7 7 7 8 8 8 8 8 8 8 8 7 6 6 5 5 5 5 5 4
9 9 9 8 8 8 7 7 7 7 7 8 7 6 7 5 5 6 5 5 4 5 5 6 7 7 8 8 7 7 8 7 8 9 8 6 6 6 6 6 5 6 5
9 9 9 8 8 7 7 7 6 6 6 6 5 5 5 5 4 4 5 4 4 4 5 6 6 7 7 8 7 6 7 7 7 7 8 7 6 6 6 5 5 6 6
9 9 9 8 8 7 6 6 5 5 5 5 4 4 4 3 2 3 3 3 3 4 4 5 5 5 6 6 6 6 6 6 6 5 6 7 6 5 5 5 5 5 6
9 9 8 8 8 7 7 6 6 5 4 4 3 3 2 1 1 1 2 2 2 2 3 3 3 3 4 4 4 5 5 6 6 6 6 6 6 4 4 4 4 5 5
9 9 9 9 8 7 7 7 6 6 5 4 4 4 3 2 1 1 1 1 1 1 1 1 1 2 3 3 4 4 5 5 5 5 5 5 4 4 4 3 4 4 4
9 9 9 8 8 8 7 7 6 6 5 5 5 5 4 3 2 2 2 2 2 1 1 1 1 1 2 2 2 3 3 4 4 4 4 4 3 3 2 3 3 3 3
10 9 9 8 8 8 7 7 7 6 6 6 6 5 5 4 4 3 3 3 2 2 2 2 2 2 1 1 1 1 1 1 1 1 1 2 2 2 2 2 3 2 2
11 10 10 9 9 8 8 7 7 7 7 7 6 6 5 5 4 4 4 3 3 3 3 3 3 3 2 2 1 1 1 1 0 0 0 1 2 2 1 1 1 1 2
11 11 11 10 9 8 8 8 7 7 7 7 7 6 5 5 4 4 4 4 4 4 4 4 4 5 4 7 6 3 2 2 1 1 2 2 3 5 5 5 5 4 1
11 11 10 10 9 8 8 8 7 7 7 7 6 6 5 5 4 4 5 5 4 4 5 5 6 6 7 8 7 7 4 4 4 3 3 2 4 4 4 6 8 9 10
11 11 10 10 9 8 8 8 8 8 7 7 6 6 5 5 5 5 5 5 5 5 5 6 6 6 7 8 6 6 6 6 5 5 5 4 5 5 5 5 7 7 8
10 10 10 10 9 8 8 9 8 8 8 7 6 6 5 6 5 6 5 5 5 6 6 6 6 6 7 8 6 4 5 6 7 7 7 6 6 7 6 7 8 8 7
10 10 10 10 9 9 9 9 9 8 7 7 6 6 6 6 6 5 5 5 5 6 6 7 7 7 8 9 8 4 4 6 6 7 8 11 10 9 7 6 7 7 5
11 11 11 9 8 8 9 9 9 8 8 7 7 7 6 6 6 5 5 5 5 6 7 8 8 9 9 10 11 9 4 5 6 7 7 8 11 11 10 7 7 5 3
12 11 10 9 8 8 8 9 9 8 8 8 8 7 6 6 6 6 6 6 5 6 7 7 8 7 8 9 10 11 9 7 7 7 7 8 10 11 10 8 7 3 2
10 9 10 10 8 7 8 9 9 8 9 9 9 8 7 7 6 6 6 5 4 4 5 5 6 6 6 7 11 12 12 11 8 9 11 9 7 8 9 9 6 4 4
9 9 10 10 8 7 8 9 9 9 9 9 8 8 7 8 7 5 5 5 5 4 5 5 5 5 5 5 5 6 7 9 9 8 9 8 8 7 7 5 5 6 6
8 8 9 9 9 8 9 9 9 9 10 9 8 8 8 8 8 8 8 7 8 6 5 5 5 5 6 7 8 6 6 6 6 5 5 6 6 6 7 6 6 6 5
8 8 9 10 9 9 9 8 8 9 9 9 8 7 6 7 7 9 10 16 13 14 14 12 8 8 9 8 9 10 10 8 4 4 7 6 6 6 6 6 5 6 6
Wind_Direction
181 181 187 188 186 188 191 193 197 191 194 199 207 209 213 215 216 218 213 212 216 215 222 232 208 222 218 219 215 210 206 219 215 231 228 229 228 223 214 221 228 216 217
179 180 187 191 193 193 193 194 198 194 197 200 207 215 220 225 225 226 213 219 218 221 219 226 227 220 221 217 222 218 232 224 209 229 239 233 216 219 219 212 217 224 215
184 183 190 193 193 193 195 197 198 195 199 201 203 204 204 221 218 220 217 219 220 223 231 227 230 224 227 216 219 218 224 230 224 226 242 258 249 229 206 217 220 221 224
188 187 188 191 194 195 192 195 195 198 197 200 207 209 217 221 221 220 221 221 223 227 228 229 229 227 229 222 224 218 224 228 230 220 232 258 298 273 242 212 210 215 222
187 186 188 189 191 190 189 191 193 198 199 203 206 216 229 231 230 225 228 227 225 230 230 229 229 225 230 229 233 226 229 227 235 236 230 233 237 244 261 258 231 219 220
178 176 176 173 176 177 182 186 188 195 198 203 209 218 230 237 238 236 235 225 221 228 228 229 228 227 228 226 227 227 226 234 240 246 246 238 239 240 245 252 247 237 227
169 167 170 168 167 172 176 177 183 190 196 201 209 217 227 232 235 240 238 237 230 227 223 228 227 229 229 230 228 226 235 232 233 237 242 243 247 254 260 263 265 265 251
163 163 165 165 162 166 169 171 176 182 187 194 203 213 223 229 233 240 249 242 247 245 236 230 229 233 233 234 229 232 231 229 232 239 244 249 247 245 246 254 261 263 258
159 160 158 158 157 160 166 170 170 172 177 181 191 203 212 225 235 241 244 248 250 250 243 240 235 234 235 237 234 232 235 232 232 236 238 244 247 248 248 248 249 253 261
155 151 150 151 149 150 153 155 156 157 163 170 182 181 191 207 219 245 252 261 267 270 262 248 243 241 240 238 236 235 233 231 232 236 241 242 244 240 239 240 244 246 259
150 145 144 142 140 139 141 141 138 138 139 143 146 139 143 151 179 220 255 262 271 272 268 261 255 249 244 241 236 239 237 234 235 238 239 243 250 247 246 242 246 248 248
138 136 135 136 137 137 136 134 134 130 125 125 124 119 112 114 129 90 9 360 328 313 300 282 263 257 247 243 239 241 242 240 239 240 243 246 236 232 249 251 251 256 264
139 136 137 140 137 133 131 131 131 126 126 125 117 110 104 100 87 68 49 46 45 26 3 340 317 302 287 266 256 246 242 240 243 241 242 246 241 239 235 242 249 250 251
144 141 139 136 131 128 129 128 123 123 123 119 116 110 103 96 88 81 68 56 53 50 36 22 14 360 346 318 278 235 232 230 246 269 257 268 260 246 241 234 244 252 251
152 148 144 137 134 132 132 127 121 119 120 118 112 106 104 99 93 87 79 69 61 58 54 40 30 26 16 4 6 117 119 123 95 5 3 37 52 50 20 292 258 247 245
156 150 145 141 138 137 136 130 126 122 119 114 108 104 103 101 97 92 86 80 72 64 60 54 47 43 40 39 38 39 68 69 70 57 48 55 75 82 85 70 59 45 24
156 151 147 142 139 140 137 132 128 126 120 113 108 105 103 96 92 90 85 78 73 71 67 62 60 58 50 48 51 56 71 68 62 61 61 55 62 75 92 91 85 68 56
153 150 146 140 137 138 135 129 128 126 119 113 108 106 104 98 89 81 76 78 77 74 70 65 65 66 56 45 49 61 80 73 63 59 61 67 67 69 84 89 81 69 57
145 143 142 137 133 133 134 133 129 124 118 110 105 101 102 100 94 85 77 75 78 77 72 68 65 65 58 40 40 54 85 79 69 64 60 66 77 64 73 91 89 82 76
136 136 133 130 129 130 133 131 127 121 113 108 102 95 92 93 90 84 83 83 82 82 79 72 64 61 58 42 34 36 87 86 83 75 69 62 67 62 58 86 94 91 84
133 131 130 128 127 130 131 129 124 118 115 112 105 97 93 91 91 88 83 86 88 87 81 78 71 62 56 53 38 26 62 81 83 76 70 63 61 61 55 62 73 73 77
133 132 129 123 124 130 131 126 120 119 119 113 107 100 95 90 91 91 88 89 92 97 93 87 78 67 57 51 51 46 44 52 78 77 76 75 71 67 61 61 54 32 24
132 131 129 125 125 131 132 125 120 123 119 113 106 100 94 87 84 85 87 91 90 92 92 91 85 79 75 71 65 63 59 57 72 77 78 79 86 92 78 65 40 35 54
129 131 131 129 125 124 123 122 126 125 120 115 112 109 103 96 86 78 74 69 64 77 85 87 89 88 78 66 72 91 94 98 95 96 98 92 74 74 76 74 56 51 45
128 131 129 126 125 125 123 126 130 132 127 123 121 116 108 102 91 75 52 59 55 41 53 71 76 77 76 48 35 44 61 66 72 88 89 76 72 65 62 59 53 48 47
130 130 130 130 129 129 125 128 134 136 135 131 130 126 123 118 114 109 90 58 61 59 55 48 57 74 72 79 72 68 65 59 42 70 80 72 66 62 61 60 58 53 45